Forester — DIUT — position and weather

sailwx.info

Track history (hours):
 
Tides and Currents Weather Stations Pressure Air Temp Water Temp Dewpoint Dewpoint Depression Visibility Wind Speed Wind Dir Waves Ship Positions

Forester

Last reported at 2014-Sep-01 08:34 UTC. Time now 2014-Sep-01 11:26 UTC.
Position N 35°58' W 005°20'.

Length 100 m; draft 6.4 m.

Type: Ship. MMSI: 211233870.

Date/timePositionNaut miles runAvg speedWind from/ knotsBaromVisibWave heightAir tempDewpointWater temp
2014-Sep-01 08:34N 35°58' W 005°20'14910.5
2014-Aug-31 18:21N 36°23' W 008°22'1411.3
2014-Aug-31 17:08N 36°27' W 008°38'711.1
2014-Aug-31 16:33N 36°28' W 008°46'1111.1
2014-Aug-31 15:33N 36°31' W 008°60'1411.7
2014-Aug-31 14:19N 36°35' W 009°17'3010.9
2014-Aug-31 11:33N 37°02' W 009°35'3511.6
2014-Aug-31 08:33N 37°35' W 009°45'  
2014-Aug-28 01:24N 50°23' W 001°38'1011.9
2014-Aug-28 00:33N 50°26' W 001°23'1110.7
2014-Aug-27 23:33N 50°28' W 001°06'9 9.4
2014-Aug-27 22:33N 50°29' W 000°52'9 8.8
2014-Aug-27 21:33N 50°30' W 000°38'9 8.7
2014-Aug-27 20:33N 50°31' W 000°24'1010.0
2014-Aug-27 19:33N 50°32' W 000°09'1211.7
2014-Aug-27 18:33N 50°35' E 000°09'1312.9
2014-Aug-27 17:33N 50°38' E 000°29'1312.7
2014-Aug-27 16:33N 50°44' E 000°46'1211.8
2014-Aug-27 15:34N 50°51' E 001°01'1110.8
2014-Aug-27 14:32N 50°58' E 001°15'9 9.4
2014-Aug-27 13:33N 51°04' E 001°26'9 9.3
2014-Aug-27 12:34N 51°10' E 001°37'1110.5
2014-Aug-27 11:33N 51°17' E 001°50'1210.5
2014-Aug-27 10:25N 51°23' E 002°06'1112.1
2014-Aug-27 09:33N 51°21' E 002°23'1312.9
2014-Aug-27 08:33N 51°22' E 002°43'2423.4
2014-Aug-27 07:32N 51°25' E 003°21'3 3.2
2014-Aug-27 06:33N 51°25' E 003°26'1212.3
2014-Aug-27 05:33N 51°22' E 003°45'1110.6
2014-Aug-27 04:33N 51°24' E 004°02'10 9.7
2014-Aug-27 03:34N 51°20' E 004°16'7 7.1
2014-Aug-27 02:34N 51°14' E 004°23'7 6.7
2014-Aug-27 01:34N 51°08' E 004°19'3 3.0
2014-Aug-27 00:30N 51°05' E 004°21'1 0.1
2014-Aug-26 15:21N 51°05' E 004°22'0 0.0
2014-Aug-26 14:28N 51°05' E 004°22'0 0.0
2014-Aug-26 08:27N 51°05' E 004°22'0 0.0
2014-Aug-25 20:26N 51°05' E 004°22'0 0.0
2014-Aug-25 18:27N 51°05' E 004°22'0 0.0
2014-Aug-25 08:18N 51°05' E 004°22'0 0.0
2014-Aug-25 07:33N 51°05' E 004°22'0 0.0
2014-Aug-25 06:33N 51°05' E 004°22'0 0.0
2014-Aug-25 05:32N 51°05' E 004°22'0 0.0
2014-Aug-25 04:33N 51°05' E 004°22'0 0.0
2014-Aug-25 03:33N 51°05' E 004°22'0 0.0
2014-Aug-24 19:15N 51°05' E 004°22'0 0.0
2014-Aug-24 07:29N 51°05' E 004°22'0 0.0
2014-Aug-24 06:33N 51°05' E 004°22'0 0.0
2014-Aug-24 05:31N 51°05' E 004°22'0 0.0
2014-Aug-24 04:33N 51°05' E 004°22'0 0.0
2014-Aug-24 03:34N 51°05' E 004°22'0 0.0
2014-Aug-24 02:21N 51°05' E 004°22'0 0.0
2014-Aug-24 01:33N 51°05' E 004°22'0 0.0
2014-Aug-24 00:31N 51°05' E 004°22'0 0.0
2014-Aug-23 23:30N 51°05' E 004°22'0 0.0
2014-Aug-23 20:33N 51°05' E 004°22'0 0.0
2014-Aug-23 19:33N 51°05' E 004°22'0 0.0
2014-Aug-23 03:27N 51°05' E 004°22'3 3.8
2014-Aug-23 02:33N 51°07' E 004°18'4 3.6
2014-Aug-23 01:34N 51°10' E 004°20'5 4.7
2014-Aug-23 00:34N 51°15' E 004°19'1010.0
2014-Aug-22 23:34N 51°24' E 004°11'9 9.1
2014-Aug-22 22:34N 51°23' E 003°57'1212.4
2014-Aug-22 21:33N 51°25' E 003°37'1211.7
2014-Aug-22 20:33N 51°34' E 003°24'1110.7
2014-Aug-22 19:32N 51°42' E 003°14'1211.0
2014-Aug-22 18:28N 51°54' E 003°17'  
Track history (hours):
 
Tides and Currents Weather Stations Pressure Air Temp Water Temp Dewpoint Dewpoint Depression Visibility Wind Speed Wind Dir Waves Ship Positions

Forester

Last reported at 2014-Sep-01 08:34 UTC. Time now 2014-Sep-01 11:26 UTC.
Position N 35°58' W 005°20'.

Length 100 m; draft 6.4 m.

Type: Ship. MMSI: 211233870.

Date/timePositionNaut miles runAvg speedWind from/ knotsBaromVisibWave heightAir tempDewpointWater temp
2014-Sep-01 08:34N 35°58' W 005°20'14910.5
2014-Aug-31 18:21N 36°23' W 008°22'1411.3
2014-Aug-31 17:08N 36°27' W 008°38'711.1
2014-Aug-31 16:33N 36°28' W 008°46'1111.1
2014-Aug-31 15:33N 36°31' W 008°60'1411.7
2014-Aug-31 14:19N 36°35' W 009°17'3010.9
2014-Aug-31 11:33N 37°02' W 009°35'3511.6
2014-Aug-31 08:33N 37°35' W 009°45'  
2014-Aug-28 01:24N 50°23' W 001°38'1011.9
2014-Aug-28 00:33N 50°26' W 001°23'1110.7
2014-Aug-27 23:33N 50°28' W 001°06'9 9.4
2014-Aug-27 22:33N 50°29' W 000°52'9 8.8
2014-Aug-27 21:33N 50°30' W 000°38'9 8.7
2014-Aug-27 20:33N 50°31' W 000°24'1010.0
2014-Aug-27 19:33N 50°32' W 000°09'1211.7
2014-Aug-27 18:33N 50°35' E 000°09'1312.9
2014-Aug-27 17:33N 50°38' E 000°29'1312.7
2014-Aug-27 16:33N 50°44' E 000°46'1211.8
2014-Aug-27 15:34N 50°51' E 001°01'1110.8
2014-Aug-27 14:32N 50°58' E 001°15'9 9.4
2014-Aug-27 13:33N 51°04' E 001°26'9 9.3
2014-Aug-27 12:34N 51°10' E 001°37'1110.5
2014-Aug-27 11:33N 51°17' E 001°50'1210.5
2014-Aug-27 10:25N 51°23' E 002°06'1112.1
2014-Aug-27 09:33N 51°21' E 002°23'1312.9
2014-Aug-27 08:33N 51°22' E 002°43'2423.4
2014-Aug-27 07:32N 51°25' E 003°21'3 3.2
2014-Aug-27 06:33N 51°25' E 003°26'1212.3
2014-Aug-27 05:33N 51°22' E 003°45'1110.6
2014-Aug-27 04:33N 51°24' E 004°02'10 9.7
2014-Aug-27 03:34N 51°20' E 004°16'7 7.1
2014-Aug-27 02:34N 51°14' E 004°23'7 6.7
2014-Aug-27 01:34N 51°08' E 004°19'3 3.0
2014-Aug-27 00:30N 51°05' E 004°21'1 0.1
2014-Aug-26 15:21N 51°05' E 004°22'0 0.0
2014-Aug-26 14:28N 51°05' E 004°22'0 0.0
2014-Aug-26 08:27N 51°05' E 004°22'0 0.0
2014-Aug-25 20:26N 51°05' E 004°22'0 0.0
2014-Aug-25 18:27N 51°05' E 004°22'0 0.0
2014-Aug-25 08:18N 51°05' E 004°22'0 0.0
2014-Aug-25 07:33N 51°05' E 004°22'0 0.0
2014-Aug-25 06:33N 51°05' E 004°22'0 0.0
2014-Aug-25 05:32N 51°05' E 004°22'0 0.0
2014-Aug-25 04:33N 51°05' E 004°22'0 0.0
2014-Aug-25 03:33N 51°05' E 004°22'0 0.0
2014-Aug-24 19:15N 51°05' E 004°22'0 0.0
2014-Aug-24 07:29N 51°05' E 004°22'0 0.0
2014-Aug-24 06:33N 51°05' E 004°22'0 0.0
2014-Aug-24 05:31N 51°05' E 004°22'0 0.0
2014-Aug-24 04:33N 51°05' E 004°22'0 0.0
2014-Aug-24 03:34N 51°05' E 004°22'0 0.0
2014-Aug-24 02:21N 51°05' E 004°22'0 0.0
2014-Aug-24 01:33N 51°05' E 004°22'0 0.0
2014-Aug-24 00:31N 51°05' E 004°22'0 0.0
2014-Aug-23 23:30N 51°05' E 004°22'0 0.0
2014-Aug-23 20:33N 51°05' E 004°22'0 0.0
2014-Aug-23 19:33N 51°05' E 004°22'0 0.0
2014-Aug-23 03:27N 51°05' E 004°22'3 3.8
2014-Aug-23 02:33N 51°07' E 004°18'4 3.6
2014-Aug-23 01:34N 51°10' E 004°20'5 4.7
2014-Aug-23 00:34N 51°15' E 004°19'1010.0
2014-Aug-22 23:34N 51°24' E 004°11'9 9.1
2014-Aug-22 22:34N 51°23' E 003°57'1212.4
2014-Aug-22 21:33N 51°25' E 003°37'1211.7
2014-Aug-22 20:33N 51°34' E 003°24'1110.7
2014-Aug-22 19:32N 51°42' E 003°14'1211.0
2014-Aug-22 18:28N 51°54' E 003°17'  

Dump ship's entire track history